Location: El Álamo
(40.2307°N, 3.9945°W)
Time: 03:43:33
(UTC+00:00)

SeaSat 1 - Pass Details

Date: 19 May 2025
Orbit: 738 x 740 km, 108.0° (Epoch: 23 June)

Event Time Altitude Azimuth Distance (km) Brightness Sun altitude
Exits shadow 23:16:26 38° 272° (W) 1,123 3.4 -28.4°
Drops below altitude 10° 23:20:19 10° 319° (NW) 2,253 5.7 -28.6°
Sets 23:22:43 0° 327° (NNW) 3,181 6.8 -28.7°
